DMSP 5D-2 F11 DEB

Satellite information

Favourite Embed

Satellite Type and Status

DEBRISDECAYED

Key statistics

Satellite DMSP 5D-2 F11 DEB at a glance.

Uptime

12354

Days in orbit

Revolutions

≈ 15.7

Per day

Orbit

SSO

Sun Synchronous Orbit

Inclination

98.5

Latest

Satellite identification and parameters

Extended collection of information and parameters for DMSP 5D-2 F11 DEB.

Object identification

Identified? True

Debris? True

Object name: DMSP 5D-2 F11 DEB

International designator: 1991-082CH

Object number (NORAD): 29088

Object ID (CCSDS): 29088

Country: UNITED STATES OF AMERICA (US)

Current information (Y/N): Y

RCS size: SMALL

Orbital parameters

Decay date: Sept. 24, 2025

Period: 91.942 minutes

Inclination: 98.5012 deg

SMA: 6747.926 km

Apoapsis: 383.115 km

Periapsis: 356.466 km

RAAN: 27.1543 deg

Eccentricy: 0.0019746

Argument of periapsis: 295.8312 deg

Mean anomaly: 64.0907 deg

Mean motion: 15.6620032 rev/day

Mean motion (dot): 0.01511482 rev/day2

B* drag term: 0.013072 1/REarth

Two-line elements (TLE)

Creation date: Sept. 29, 2025, 11:26 p.m.

Reference frame: TEME

Reference center: EARTH

Epoch: Sept. 19, 2025, 1:54 p.m. UTC

TLE line 0: 0 DMSP 5D-2 F11 DEB

TLE line 1: 1 29088U 91082CH 25262.57946494 .01511482 00000-0 13072-1 0 9998

TLE line 2: 2 29088 98.5012 27.1543 0019746 295.8312 64.0907 15.66200320644592

Live tracking on map

Satellite DMSP 5D-2 F11 DEB has decayed and is no longer in orbit. No tracking available.

In-orbit conjunctions

Satellite DMSP 5D-2 F11 DEB has decayed and is no longer in orbit. No conjunctions available.

Associated space launch

Military meteorological satellite

DMSP 5D-2 F11 DEB was lifted into orbit during the mission ‘Atlas E | DMSP-5D2 F11’, on board a Atlas E space rocket.

The launch took place on Nov. 28, 1991, 1:23 p.m. from Space Launch Complex 3W.

For more information about the launch, click the button.

Launch to space Atlas E | DMSP-5D2 F11
Atlas E | DMSP-5D2 F11

Agency: N/A

Status: Launch Successful

Launch date: Nov. 28, 1991, 1:23 p.m. UTC

Rocket: Atlas E

Launch pad: Space Launch Complex 3W

Location: Vandenberg SFB, CA, USA

...

Latest news about this satellite

There are no fresh news available about this satellite. Check back as we update our databases every day.


Newsletter sign-up

Weekly statistics, charts and insights to help you stay on top of the space industry.